Tracking 35035 objects as of 16-Aug-2026
HD Live streaming from Space Station
objects crossing your sky now

STARLINK-5800

Track STARLINK-5800 now!
10-day predictions
STARLINK-5800 is classified as:


NORAD ID: 56041
Int'l Code: 2023-042BH
Launch date: March 24, 2022
Source: United States (US)
Launch site: AIR FORCE EASTERN TEST RANGE (AFETR)
Your satellite tracking list
Your tracking list is empty




NASA's NSSDC Master Catalog

Two Line Element Set (TLE):
1 56041U 23042BH  26228.03405677  .00000400  00000-0  24057-4 0  9995
2 56041  43.0022 214.0937 0001681 269.8898  90.1761 15.27578610187531
Source of the keplerian elements: AFSPC